FW1203 Weather Reports


time (UTC)temp
F
wind
direction
speed
knots
gust
knots
rain 1hr
in
rain 24hr
in
rain mn
in
humidity
%
barometer
mb
20260504000333 68 277 0.9 3.5 0.00 0.00 0.00 49 1004.0
20260503235833 68 249 0.0 3.5 0.00 0.00 0.00 50 1004.0
20260503235333 68 222 0.9 4.3 0.00 0.00 0.00 49 1004.0
20260503234833 69 215 0.9 4.3 0.00 0.00 0.00 49 1003.9
20260503234333 68 254 0.9 3.5 0.00 0.00 0.00 49 1004.0
20260503233833 69 200 0.9 3.5 0.00 0.00 0.00 48 1004.0
20260503233333 69 244 0.9 3.5 0.00 0.00 0.00 48 1004.0
20260503232833 69 241 0.9 3.5 0.00 0.00 0.00 48 1004.0
20260503232333 68 274 0.9 3.5 0.00 0.00 0.00 48 1004.1
20260503231833 68 259 0.9 3.5 0.00 0.00 0.00 48 1004.1
20260503231333 68 246 0.9 4.3 0.00 0.00 0.00 48 1004.2
20260503230833 68 193 1.7 4.3 0.00 0.00 0.00 48 1004.2
20260503230333 68 205 0.9 7.0 0.00 0.00 0.00 47 1004.2
20260503225833 68 240 1.7 7.0 0.00 0.00 0.00 47 1004.2
20260503225333 68 243 1.7 5.2 0.00 0.00 0.00 47 1004.3
20260503224833 68 201 1.7 6.1 0.00 0.00 0.00 47 1004.5
20260503224333 68 204 1.7 6.1 0.00 0.00 0.00 46 1004.5
20260503223833 68 206 2.6 6.1 0.00 0.00 0.00 46 1004.5
20260503223333 68 217 1.7 5.2 0.00 0.00 0.00 47 1004.7
20260503222833 68 194 1.7 4.3 0.00 0.00 0.00 46 1004.7
20260503222333 68 222 0.9 6.1 0.00 0.00 0.00 47 1004.8
20260503221833 68 212 1.7 7.0 0.00 0.00 0.00 46 1004.9
20260503221333 68 258 1.7 7.0 0.00 0.00 0.00 46 1004.9
20260503220833 68 247 1.7 6.1 0.00 0.00 0.00 46 1005.0
20260503220333 68 200 1.7 6.1 0.00 0.00 0.00 47 1005.0
20260503215833 68 214 1.7 6.1 0.00 0.00 0.00 46 1005.0
20260503215333 68 240 2.6 10.4 0.00 0.00 0.00 45 1005.1
20260503214833 68 207 3.5 10.4 0.00 0.00 0.00 45 1005.0
20260503214333 68 209 1.7 7.8 0.00 0.00 0.00 45 1005.2
20260503213833 68 239 1.7 7.8 0.00 0.00 0.00 45 1005.3
20260503213333 68 223 1.7 8.7 0.00 0.00 0.00 45 1005.3
20260503212833 68 183 0.9 8.7 0.00 0.00 0.00 44 1005.2
20260503212333 68 224 2.6 9.6 0.00 0.00 0.00 45 1005.4
20260503211833 68 256 2.6 9.6 0.00 0.00 0.00 44 1005.5
20260503211333 68 245 0.9 7.8 0.00 0.00 0.00 44 1005.6
20260503210833 68 234 1.7 7.8 0.00 0.00 0.00 45 1005.6
20260503210333 68 231 3.5 9.6 0.00 0.00 0.00 43 1005.6
20260503205833 68 201 1.7 9.6 0.00 0.00 0.00 45 1005.6
20260503205333 68 255 0.9 10.4 0.00 0.00 0.00 45 1005.9
20260503204833 67 228 2.6 10.4 0.00 0.00 0.00 45 1005.9
20260503204333 66 224 1.7 7.8 0.00 0.00 0.00 47 1006.0
20260503203833 66 266 1.7 7.8 0.00 0.00 0.00 47 1006.1
20260503203333 66 260 1.7 7.8 0.00 0.00 0.00 48 1006.3
20260503202833 66 213 2.6 7.8 0.00 0.00 0.00 47 1006.4
20260503202333 66 205 2.6 8.7 0.00 0.00 0.00 48 1006.6
20260503201833 66 199 3.5 8.7 0.00 0.00 0.00 47 1006.7
20260503201333 66 213 0.0 7.8 0.00 0.00 0.00 49 1006.9
20260503200833 66 213 1.7 7.8 0.00 0.00 0.00 50 1006.9
20260503200333 66 211 0.9 7.8 0.00 0.00 0.00 53 1007.0
20260503195833 65 252 2.6 7.8 0.00 0.00 0.00 53 1007.0
20260503195333 65 271 0.9 9.6 0.00 0.00 0.00 53 1007.3
20260503194833 65 199 2.6 9.6 0.00 0.00 0.00 52 1007.3
20260503194333 65 226 1.7 7.8 0.00 0.00 0.00 52 1007.3
20260503193833 64 208 1.7 7.0 0.00 0.00 0.00 53 1007.3
20260503193333 64 197 2.6 7.0 0.00 0.00 0.00 52 1007.4
20260503192333 63 198 2.6 9.6 0.00 0.00 0.00 52 1007.6
20260503191833 62 190 3.5 9.6 0.00 0.00 0.00 53 1007.7
20260503191333 62 203 2.6 7.8 0.00 0.00 0.00 54 1007.6
20260503190833 61 201 2.6 7.8 0.00 0.00 0.00 56 1007.8
20260503190333 61 193 1.7 6.1 0.00 0.00 0.00 56 1007.9
20260503185833 60 227 2.6 7.0 0.00 0.00 0.00 56 1007.8
20260503185333 60 201 2.6 7.0 0.00 0.00 0.00 57 1007.9
20260503184833 60 210 2.6 7.0 0.00 0.00 0.00 57 1008.0
20260503184333 60 223 1.7 5.2 0.00 0.00 0.00 58 1008.1
20260503183833 60 195 1.7 4.3 0.00 0.00 0.00 59 1008.2
20260503183333 59 190 1.7 8.7 0.00 0.00 0.00 61 1008.3
20260503182833 59 188 2.6 8.7 0.00 0.00 0.00 61 1008.3
20260503182333 58 211 2.6 7.0 0.00 0.00 0.00 61 1008.6
20260503181833 58 206 1.7 6.1 0.00 0.00 0.00 62 1008.7
20260503181333 57 214 1.7 7.0 0.00 0.00 0.00 63 1008.9
20260503180832 57 227 0.9 7.0 0.00 0.00 0.00 63 1009.1
20260503180333 57 202 2.6 7.8 0.00 0.00 0.00 63 1009.3
20260503175833 56 226 3.5 7.8 0.00 0.00 0.00 64 1009.5
20260503175333 56 211 2.6 7.0 0.00 0.00 0.00 64 1009.7
20260503174833 56 259 1.7 8.7 0.00 0.00 0.00 66 1009.9
20260503173833 55 217 1.7 9.6 0.00 0.00 0.00 66 1010.3
20260503173333 55 242 1.7 7.0 0.00 0.00 0.00 67 1010.4
20260503172833 55 235 1.7 9.6 0.00 0.00 0.00 69 1010.4
20260503172333 54 229 2.6 9.6 0.00 0.00 0.00 69 1010.7
20260503171833 54 225 1.7 9.6 0.00 0.00 0.00 69 1010.6
20260503171333 54 209 2.6 8.7 0.00 0.00 0.00 70 1010.7
20260503170833 54 232 1.7 7.0 0.00 0.00 0.00 70 1010.8
20260503170333 54 203 1.7 7.0 0.00 0.00 0.00 71 1011.0
20260503150833 56 218 1.7 4.3 0.00 0.00 0.00 60 1011.7
20260503150333 56 245 1.7 7.0 0.00 0.00 0.00 60 1011.7
20260503131333 53 238 1.7 5.2 0.00 0.00 0.00 60 1012.7
20260503130833 53 248 1.7 5.2 0.00 0.00 0.00 60 1012.7
20260503130333 53 245 0.9 5.2 0.00 0.00 0.00 60 1012.7
20260503110333 47 247 0.0 2.6 0.00 0.00 0.00 64 1012.6
20260503090333 47 0 0.0 0.0 0.00 0.00 0.00 61 1013.3
20260503081333 47 204 0.0 1.7 0.00 0.00 0.00 61 1013.6
20260503080833 47 206 0.0 2.6 0.00 0.00 0.00 61 1013.5
20260503080333 46 223 0.0 2.6 0.00 0.00 0.00 61 1013.6
20260503072833 47 0 0.0 0.0 0.00 0.00 0.00 61 1013.6
20260503072333 47 209 0.0 0.9 0.00 0.00 0.00 61 1013.7
20260503071833 47 209 0.0 0.9 0.00 0.00 0.00 61 1013.7
20260503070833 47 209 0.0 0.9 0.00 0.00 0.00 61 1013.8
20260503070333 47 209 0.0 0.9 0.00 0.00 0.00 61 1013.9
20260503060333 45 221 0.0 0.9 0.00 0.00 0.00 66 1014.4
20260503054833 44 0 0.0 0.0 0.00 0.00 0.00 70 1014.4
20260503054333 43 0 0.0 0.0 0.00 0.00 0.00 71 1014.5
20260503053833 43 0 0.0 0.0 0.00 0.00 0.00 72 1014.5
20260503053333 43 0 0.0 0.0 0.00 0.00 0.00 73 1014.6
20260503052333 43 0 0.0 0.0 0.00 0.00 0.00 74 1014.7
20260503051833 43 0 0.0 0.0 0.00 0.00 0.00 75 1014.8
20260503051333 43 0 0.0 0.0 0.00 0.00 0.00 75 1014.8
20260503050833 43 0 0.0 0.0 0.00 0.00 0.00 75 1014.8
20260503050333 42 0 0.0 0.0 0.00 0.00 0.00 76 1014.9
20260503045833 42 0 0.0 0.0 0.00 0.00 0.00 77 1014.9
20260503045333 42 0 0.0 0.0 0.00 0.00 0.00 78 1014.9
20260503044833 42 0 0.0 0.0 0.00 0.00 0.00 80 1014.9
20260503044333 42 0 0.0 0.0 0.00 0.00 0.00 82 1014.9
20260503043833 42 0 0.0 0.0 0.00 0.00 0.00 83 1014.9
20260503043333 42 0 0.0 0.0 0.00 0.00 0.00 83 1014.9
20260503042833 42 0 0.0 0.0 0.00 0.00 0.00 83 1014.9
20260503042333 42 0 0.0 0.0 0.00 0.00 0.00 84 1015.0
20260503041833 42 0 0.0 0.0 0.00 0.00 0.00 84 1015.0
20260503041333 42 0 0.0 0.0 0.00 0.00 0.00 84 1015.0
20260503040833 42 0 0.0 0.0 0.00 0.00 0.00 84 1015.0
20260503040333 42 0 0.0 0.0 0.00 0.00 0.00 84 1015.0
20260503035833 42 0 0.0 0.0 0.00 0.00 0.00 84 1015.0
20260503035333 42 0 0.0 0.0 0.00 0.00 0.00 84 1015.0
20260503034833 42 0 0.0 0.0 0.00 0.00 0.00 84 1015.1
20260503034333 42 0 0.0 0.0 0.00 0.00 0.00 84 1015.1
20260503033833 42 0 0.0 0.0 0.00 0.00 0.00 84 1015.1
20260503033333 42 0 0.0 0.0 0.00 0.00 0.00 84 1015.1
20260503032833 43 0 0.0 0.0 0.00 0.00 0.00 83 1015.2
20260503032333 43 0 0.0 0.0 0.00 0.00 0.00 83 1015.2
20260503031833 43 0 0.0 0.0 0.00 0.00 0.00 83 1015.2
20260503031333 43 0 0.0 0.0 0.00 0.00 0.00 83 1015.3
20260503030833 43 0 0.0 0.0 0.00 0.00 0.00 83 1015.3
20260503030333 43 0 0.0 0.0 0.00 0.00 0.00 83 1015.4
20260503025833 43 0 0.0 0.0 0.00 0.00 0.00 83 1015.4
20260503025333 43 0 0.0 0.0 0.00 0.00 0.00 82 1015.3
20260503024833 44 0 0.0 0.0 0.00 0.00 0.00 82 1015.4
20260503024333 44 0 0.0 0.0 0.00 0.00 0.00 82 1015.4
20260503023833 44 0 0.0 0.0 0.00 0.00 0.00 82 1015.4
20260503023333 44 0 0.0 0.0 0.00 0.00 0.00 81 1015.3
20260503022833 44 0 0.0 0.0 0.00 0.00 0.00 81 1015.4
20260503022333 45 0 0.0 0.0 0.00 0.00 0.00 81 1015.4
20260503021833 45 0 0.0 0.0 0.00 0.00 0.00 80 1015.4
20260503021333 45 0 0.0 0.0 0.00 0.00 0.00 80 1015.5
20260503020833 45 0 0.0 0.0 0.00 0.00 0.00 80 1015.4
20260503020333 45 0 0.0 0.0 0.00 0.00 0.00 79 1015.3
20260503015833 46 0 0.0 0.0 0.00 0.00 0.00 79 1015.3
20260503015333 46 0 0.0 0.0 0.00 0.00 0.00 79 1015.2
20260503014833 46 0 0.0 0.0 0.00 0.00 0.00 78 1015.2
20260503014333 46 0 0.0 0.0 0.00 0.00 0.00 77 1015.2
20260503013833 47 0 0.0 0.0 0.00 0.00 0.00 77 1015.2
20260503013333 47 0 0.0 0.0 0.00 0.00 0.00 76 1015.2
20260503012333 48 0 0.0 0.0 0.00 0.00 0.00 75 1015.3
20260503011833 48 0 0.0 0.0 0.00 0.00 0.00 74 1015.3
20260503011333 48 0 0.0 0.0 0.00 0.00 0.00 73 1015.3
20260503010833 48 0 0.0 0.0 0.00 0.00 0.00 72 1015.3
20260503010333 49 0 0.0 0.0 0.00 0.00 0.00 72 1015.2
20260503005833 49 0 0.0 0.0 0.00 0.00 0.00 71 1015.2
20260503005333 49 0 0.0 0.0 0.00 0.00 0.00 70 1015.2
20260503004833 50 0 0.0 0.0 0.00 0.00 0.00 70 1015.2
20260503004333 50 0 0.0 0.0 0.00 0.00 0.00 69 1015.2
20260503003833 50 0 0.0 0.0 0.00 0.00 0.00 69 1015.3
20260503003333 50 0 0.0 0.0 0.00 0.00 0.00 68 1015.4
20260503002833 51 0 0.0 0.0 0.00 0.00 0.00 68 1015.3
20260503002333 51 0 0.0 0.0 0.00 0.00 0.00 67 1015.5
20260503001833 51 0 0.0 0.0 0.00 0.00 0.00 67 1015.4
20260503000833 51 0 0.0 0.0 0.00 0.00 0.00 66 1015.4